Weather History for Chignik, AK

Change the Weather History Date:

Monday, May 20, 2013

  Actual Average Record
Temperature  
Mean Temperature 42 °F -  
Max Temperature 46 °F 45 °F 57 °F (2014)
Min Temperature 39 °F 36 °F 33 °F (1998)
Degree Days  
Heating Degree Days 22    
Moisture  
Dew Point 34 °F    
Average Humidity 69    
Maximum Humidity 76    
Minimum Humidity 61    
Precipitation  
Precipitation 0.00 in - - ()
Sea Level Pressure  
Sea Level Pressure 30.50 in    
Wind  
Wind Speed 6 mph (ESE)    
Max Wind Speed 15 mph    
Max Gust Speed 26 mph    
Visibility 10 miles    
Events      
Averages and records for this station are not official NWS values.
T = Trace of Precipitation, MM = Missing Value Source: NWS Daily Summary

Daily Weather History Graph

Daily Weather History Graph

Search for Another Location

Airport:

Trip Planner

Search our weather history database for the weather conditions in past years. The results will help you decide how hot, cold, wet, or windy it might be!

Date:

Astronomy

May. 20, 2013 Rise Set
Actual Time 6:09 AM AKDT 10:52 PM AKDT
Civil Twilight 5:16 AM AKDT 11:45 PM AKDT
Nautical Twilight 3:44 AM AKDT 1:19 AM AKDT
Astronomical Twilight Sun does not rise Sun does not rise
Moon 5:21 PM AKDT (5/20) 4:07 AM AKDT (5/20)
Length of Visible Light 18h 29m
Length of Day
16h 42m
Waxing Gibbous, 76% of the Moon is Illuminated
May 20
Waxing Gibbous
May 24
Full
May 31
Last Quarter
Jun 8
New
Jun 16
First Quarter

Hourly Weather History & Observations

Time (AKDT) Temp. Windchill Dew Point Humidity Pressure Visibility Wind Dir Wind Speed Gust Speed Precip Events Conditions
6:56 AM 39.2 °F 35.0 °F 30.2 °F 70% 30.57 in 10.0 mi NE 5.8 mph - N/A   Overcast
7:16 AM 39.2 °F - 30.2 °F 70% 30.57 in 10.0 mi Calm Calm - N/A   Overcast
7:36 AM 39.2 °F 35.0 °F 30.2 °F 70% 30.56 in 10.0 mi North 5.8 mph - N/A   Mostly Cloudy
7:56 AM 41.0 °F 39.0 °F 30.2 °F 65% 30.56 in 10.0 mi NW 3.5 mph - N/A   Overcast
8:16 AM 42.8 °F 38.6 °F 30.2 °F 61% 30.55 in 9.0 mi South 6.9 mph 26.5 mph N/A   Mostly Cloudy
8:36 AM 41.0 °F 37.1 °F 32.0 °F 70% 30.55 in 10.0 mi SE 5.8 mph - N/A   Overcast
8:56 AM 42.8 °F 41.1 °F 32.0 °F 66% 30.55 in 8.0 mi SE 3.5 mph 19.6 mph N/A   Overcast
9:16 AM 42.8 °F 40.1 °F 30.2 °F 61% 30.55 in 10.0 mi SE 4.6 mph - N/A   Overcast
9:36 AM 41.0 °F 38.0 °F 32.0 °F 70% 30.55 in 10.0 mi SSE 4.6 mph - N/A   Overcast
9:56 AM 41.0 °F 38.0 °F 33.8 °F 76% 30.54 in 10.0 mi SSE 4.6 mph - N/A   Overcast
10:16 AM 41.0 °F 36.4 °F 33.8 °F 76% 30.54 in 10.0 mi SSE 6.9 mph - N/A   Overcast
10:56 AM 42.8 °F 36.2 °F 32.0 °F 66% 30.54 in 10.0 mi SW 12.7 mph 23.0 mph N/A   Overcast
11:16 AM 42.8 °F 35.4 °F 33.8 °F 70% 30.54 in 10.0 mi SSE 15.0 mph 23.0 mph N/A   Overcast
11:36 AM 42.8 °F 35.4 °F 33.8 °F 70% 30.54 in 10.0 mi SSW 15.0 mph 23.0 mph N/A   Overcast
11:56 AM 44.6 °F - 33.8 °F 66% 30.54 in 10.0 mi Calm Calm - N/A   Overcast
12:16 PM 42.8 °F 40.1 °F 33.8 °F 70% 30.54 in 10.0 mi NNE 4.6 mph - N/A   Overcast
12:36 PM 44.6 °F 40.2 °F 35.6 °F 71% 30.54 in 10.0 mi ESE 8.1 mph - N/A   Overcast
12:56 PM 44.6 °F 40.7 °F 33.8 °F 66% 30.53 in 10.0 mi North 6.9 mph - N/A   Overcast
1:16 PM 42.8 °F 38.6 °F 35.6 °F 76% 30.53 in 10.0 mi North 6.9 mph - N/A   Overcast
1:36 PM 42.8 °F 38.0 °F 35.6 °F 76% 30.53 in 10.0 mi NNE 8.1 mph - N/A   Overcast
1:56 PM 42.8 °F 38.6 °F 35.6 °F 76% 30.52 in 10.0 mi North 6.9 mph - N/A   Overcast
2:16 PM 42.8 °F 40.1 °F 33.8 °F 70% 30.52 in 10.0 mi North 4.6 mph - N/A   Overcast
2:36 PM 44.6 °F 41.4 °F 33.8 °F 66% 30.51 in 10.0 mi NNW 5.8 mph - N/A   Overcast
2:56 PM 44.6 °F 41.4 °F 35.6 °F 71% 30.51 in 10.0 mi NE 5.8 mph - N/A   Overcast
3:16 PM 44.6 °F 40.2 °F 35.6 °F 71% 30.50 in 10.0 mi North 8.1 mph - N/A   Overcast
3:36 PM 44.6 °F 43.1 °F 35.6 °F 71% 30.50 in 10.0 mi NNW 3.5 mph - N/A   Overcast
3:56 PM 46.4 °F 42.4 °F 35.6 °F 66% 30.50 in 10.0 mi South 8.1 mph - N/A   Overcast
4:16 PM 44.6 °F - 35.6 °F 71% 30.50 in 10.0 mi Calm Calm - N/A   Overcast
4:36 PM 46.4 °F 45.2 °F 35.6 °F 66% 30.49 in 10.0 mi ESE 3.5 mph - N/A   Overcast
4:56 PM 46.4 °F 41.5 °F 35.6 °F 66% 30.49 in 10.0 mi SE 10.4 mph - N/A   Overcast
5:16 PM 46.4 °F 41.1 °F 35.6 °F 66% 30.49 in 10.0 mi ESE 11.5 mph 16.1 mph N/A   Overcast
5:36 PM 46.4 °F 41.1 °F 35.6 °F 66% 30.48 in 10.0 mi SSE 11.5 mph - N/A   Overcast
5:56 PM 46.4 °F 41.5 °F 35.6 °F 66% 30.48 in 10.0 mi South 10.4 mph - N/A   Overcast
6:16 PM 46.4 °F 45.2 °F 35.6 °F 66% 30.47 in 10.0 mi ENE 3.5 mph - N/A   Overcast
6:36 PM 46.4 °F 41.9 °F 35.6 °F 66% 30.47 in 10.0 mi SE 9.2 mph - N/A   Overcast
6:56 PM 46.4 °F 42.9 °F 35.6 °F 66% 30.46 in 10.0 mi SE 6.9 mph - N/A   Overcast
7:16 PM 46.4 °F 41.5 °F 35.6 °F 66% 30.46 in 10.0 mi SSE 10.4 mph 18.4 mph N/A   Overcast
7:36 PM 46.4 °F 41.5 °F 35.6 °F 66% 30.45 in 10.0 mi South 10.4 mph 23.0 mph N/A   Overcast
7:56 PM 46.4 °F 42.4 °F 35.6 °F 66% 30.45 in 10.0 mi ESE 8.1 mph - N/A   Overcast
8:16 PM 44.6 °F 40.2 °F 35.6 °F 71% 30.45 in 10.0 mi SE 8.1 mph - N/A   Overcast
8:36 PM 44.6 °F 39.2 °F 35.6 °F 71% 30.44 in 10.0 mi East 10.4 mph 18.4 mph N/A   Overcast
8:56 PM 44.6 °F 40.7 °F 35.6 °F 71% 30.44 in 10.0 mi ESE 6.9 mph - N/A   Overcast
9:16 PM 44.6 °F 40.7 °F 35.6 °F 71% 30.45 in 10.0 mi ESE 6.9 mph 23.0 mph N/A   Overcast
9:36 PM 44.6 °F 40.7 °F 35.6 °F 71% 30.45 in 10.0 mi ESE 6.9 mph - N/A   Overcast
9:56 PM 44.6 °F 40.2 °F 35.6 °F 71% 30.44 in 10.0 mi ESE 8.1 mph - N/A   Overcast
10:16 PM 44.6 °F 40.2 °F 35.6 °F 71% 30.44 in 10.0 mi ESE 8.1 mph - N/A   Overcast
10:36 PM 44.6 °F 42.2 °F 35.6 °F 71% 30.44 in 10.0 mi SE 4.6 mph - N/A   Overcast
10:56 PM 44.6 °F 40.7 °F 35.6 °F 71% 30.44 in 10.0 mi SSE 6.9 mph 25.3 mph N/A   Overcast
11:16 PM 44.6 °F 41.4 °F 35.6 °F 71% 30.43 in 10.0 mi East 5.8 mph - N/A   Overcast
11:36 PM 44.6 °F 40.2 °F 33.8 °F 66% 30.42 in 10.0 mi South 8.1 mph - N/A   Overcast
11:56 PM 44.6 °F 41.4 °F 35.6 °F 71% 30.42 in 10.0 mi NNW 5.8 mph - N/A   Overcast